Weather History for KBIF - January, 2014

Change the Weather History Date:

Saturday, January 25, 2014

  Actual Average Record
Temperature  
Mean Temperature 48 °F -  
Max Temperature 60 °F - - ()
Min Temperature 36 °F - - ()
Degree Days  
Heating Degree Days 17    
Moisture  
Dew Point 14 °F    
Average Humidity 26    
Maximum Humidity 39    
Minimum Humidity 14    
Precipitation  
Precipitation 0.00 in - - ()
Sea Level Pressure  
Sea Level Pressure 30.20 in    
Wind  
Wind Speed 3 mph (East)    
Max Wind Speed 6 mph    
Max Gust Speed -    
Visibility 10 miles    
Events      
T = Trace of Precipitation, MM = Missing Value Source: NWS Daily Summary

Daily Weather History Graph

Daily Weather History Graph

Search for Another Location

Airport or City:

Trip Planner

Search our weather history database for the weather conditions in past years. The results will help you decide how hot, cold, wet, or windy it might be!

Date:

Astronomy

Jan. 25, 2014 Rise Set
Actual Time 7:02 AM MST 5:33 PM MST
Civil Twilight 6:36 AM MST 5:59 PM MST
Nautical Twilight 6:07 AM MST 6:28 PM MST
Astronomical Twilight 5:38 AM MST 6:57 PM MST
Moon 1:39 AM MST (1/25) 12:35 PM MST (1/25)
Length of Visible Light 11h 22m
Length of Day
10h 30m
Waning Crescent, 33% of the Moon is Illuminated
Jan 25
Waning Crescent
Jan 30
New
Feb 6
First Quarter
Feb 14
Full
Feb 22
Last Quarter

Hourly Weather History & Observations

Time (MST) Temp. Windchill Dew Point Humidity Pressure Visibility Wind Dir Wind Speed Gust Speed Precip Events Conditions
12:56 AM 38.3 °F - 11.1 °F 33% 30.36 in 8.0 mi NNE 1.2 mph - N/A   Overcast
1:56 AM 38.5 °F 36.1 °F 11.5 °F 33% 30.35 in 8.0 mi North 3.5 mph - N/A   Mostly Cloudy
2:56 AM 38.5 °F - 11.8 °F 34% 30.32 in 8.0 mi NNW 1.2 mph - N/A   Mostly Cloudy
3:56 AM 36.7 °F 32.9 °F 11.1 °F 35% 30.31 in 8.0 mi NNE 4.6 mph - N/A   Mostly Cloudy
4:56 AM 36.0 °F 31.1 °F 12.7 °F 38% 30.30 in 8.0 mi North 5.8 mph - N/A   Mostly Cloudy
5:56 AM 37.9 °F - 14.7 °F 39% 30.30 in 12.0 mi South 2.3 mph - N/A   Mostly Cloudy
6:56 AM 40.6 °F 38.6 °F 14.7 °F 35% 30.31 in 8.0 mi South 3.5 mph - N/A   Mostly Cloudy
7:56 AM 39.7 °F - 14.5 °F 36% 30.32 in 10.0 mi East 2.3 mph - N/A   Mostly Cloudy
8:56 AM 43.0 °F 40.3 °F 15.8 °F 33% 30.34 in 9.0 mi South 4.6 mph - N/A   Mostly Cloudy
9:56 AM 46.8 °F - 15.3 °F 28% 30.33 in 10.0 mi ENE 3.5 mph - N/A   Partly Cloudy
10:56 AM 49.6 °F - 15.1 °F 25% 30.28 in 12.0 mi East 3.5 mph - N/A   Mostly Cloudy
11:56 AM 52.5 °F - 14.2 °F 22% 30.25 in 11.0 mi East 4.6 mph - N/A   Mostly Cloudy
12:56 PM 54.7 °F - 13.8 °F 20% 30.18 in 12.0 mi ESE 4.6 mph - N/A   Mostly Cloudy
1:56 PM 57.9 °F - 11.5 °F 16% 30.13 in 12.0 mi SSE 2.3 mph - N/A   Mostly Cloudy
2:56 PM 59.9 °F - 11.7 °F 15% 30.10 in 12.0 mi North 4.6 mph - N/A   Mostly Cloudy
3:56 PM 60.8 °F - 11.5 °F 14% 30.10 in 12.0 mi NE 2.3 mph - N/A   Partly Cloudy
4:56 PM 59.9 °F - 11.5 °F 15% 30.10 in 12.0 mi ENE 1.2 mph - N/A   Clear
5:56 PM 57.6 °F - 11.3 °F 16% 30.09 in 12.0 mi ENE 3.5 mph - N/A   Mostly Cloudy
6:56 PM 56.3 °F - 12.6 °F 18% 30.09 in 12.0 mi SE 2.3 mph - N/A   Clear
7:56 PM 51.6 °F - 12.6 °F 21% 30.09 in 12.0 mi ENE 3.5 mph - N/A   Clear
8:56 PM 53.6 °F - 15.1 °F 22% 30.06 in 8.0 mi ESE 4.6 mph - N/A   Clear
9:56 PM 50.7 °F - 15.1 °F 24% 30.06 in 6.0 mi East 5.8 mph - N/A   Clear
10:56 PM 51.4 °F - 16.0 °F 25% 30.05 in 6.0 mi SE 2.3 mph - N/A   Clear
11:56 PM 55.8 °F - 23.7 °F 29% 30.02 in 12.0 mi WSW 5.8 mph - N/A   Clear